Regional Weather Roundup
Issued by NWS Green Bay, WI

Home | Current Version | Previous Version | Graphics & Text | Print | Product List | Glossary Off
Versions: 1 2 3 4 5 6 7 8 9 10 11 12 13 14 15 16 17 18 19 20 21 22 23 24 25 26 27 28 29 30 31 32 33 34 35 36 37 38 39 40 41 42 43 44 45 46 47 48 49 50

000
ASUS43 KGRB 250300
RWRGRB

NORTH-CENTRAL AND NORTHEAST WISCONSIN REGIONAL WEATHER ROUNDUP
NATIONAL WEATHER SERVICE GREEN BAY WI
900 PM CST FRI FEB 24 2017

WIZ005-009-010>012-018-019-250400-
NORTH CENTRAL WISCONSIN

CITY           SKY/WX    TMP DP  RH WIND       PRES   REMARKS
IRONWOOD       LGT SNOW  17  14  88 N8        29.78S FOG     WCI   7
MANITOWISH WTR NOT AVBL
ARBOR VITAE    NOT AVBL
EAGLE RIVER    NOT AVBL
LAND O LAKES   NOT AVBL
RHINELANDER    LGT SNOW  18  14  84 N12G18    29.67R VSB 1   WCI   5
PHILLIPS       NOT AVBL
ANTIGO         NOT AVBL
TOMAHAWK       NOT AVBL
MERRILL        NOT AVBL
$$

WIZ013-073-250400-
NORTHEAST WISCONSIN

CITY           SKY/WX    TMP DP  RH WIND       PRES   REMARKS
IRON MOUNTAIN  MIX PCPN  20  14  77 N18G26    29.61F WCI   5
MARINETTE      MIX PCPN  24  22  91 N14G22    29.59F FOG
$$

WIZ017-030-035>037-045-250400-
CENTRAL WISCONSIN

CITY           SKY/WX    TMP DP  RH WIND       PRES   REMARKS
MEDFORD        NOT AVBL
WAUSAU         LGT SNOW  19  14  81 N12G20    29.66R WCI   7
MOSINEE        LGT SNOW  19  18  93 N15G21    29.67S WCI   5
MARSHFIELD     LGT SNOW  19  15  84 N15       29.67S VSB 3/4 WCI   5
WISC RAPIDS    LGT SNOW  21  17  84 N20G25    29.68S FOG     WCI   6
STEVENS POINT  NOT AVBL
WAUPACA        NOT AVBL
SHAWANO        MIX PCPN  24  21  88 CALM      29.64S
CLINTONVILLE   NOT AVBL
WAUTOMA        FLURRIES  23  20  88 N8        29.65S
$$

WIZ038-039-048-051-250400-
FOX VALLEY

CITY           SKY/WX    TMP DP  RH WIND       PRES   REMARKS
NWS GREEN BAY  LGT SNOW  25  24  96 NW13      29.60R FOG
APPLETON       CLOUDY    25  23  93 N13       29.59R FOG
OSHKOSH        LGT SNOW  25  23  92 N17       29.60S FOG
FOND DU LAC    LGT SNOW  26  22  84 N14       29.60S FOG
$$

WIZ022-050-052-250400-
EAST CENTRAL WISCONSIN

CITY           SKY/WX    TMP DP  RH WIND       PRES   REMARKS
EPHRAIM        NOT AVBL
WASHINGTON ISL NOT AVBL
STURGEON BAY   MIX PCPN  27  25  92 MISG      29.56S FOG
MANITOWOC      NOT AVBL
SHEBOYGAN      FRZ RAIN  26  23  88 NW14G25   29.56R FOG
$$

LMZ563-521-522-541>543-250400-
LAKESHORE

STATION/POSITION TIME  TEMP    WIND        PRES    VSBY  WAVE
                       AIR SEA DIR/SP/G                  HT/PER
                 (UTC) (F)     (DEG/KT/KT) (MB)    (MI)  (FT/S)
SHEBOYGAN LKSHOR 0200   28     340/  7/  8 1000.7R
KEWAUNEE LKSHORE 0230   27     350/ 12/ 20 1000.1F
NORTHPORT PIER   0240   27      10/  4/  5 1001.4F
MENOMINEE LKSHOR 0230   24     320/ 17/ 22 1000.9F
$$




USA.gov is the U.S. government's official web portal to all federal, state and local government web resources and services.